STARLINK-32079, 60336

Orbit data source: Space-Track

STARLINK-32079, 60336 is a payload satellite owned by SpaceX/Seattle (US) in LEO that was launched on Fri, 02 Aug 2024 UTC via an FALCON 9 launch vehicle from the Air Force Eastern Test Range (AFETR). Payload-class satellites include a variety of spacecraft equipped with specific instruments for various scientific and technological missions. These include communications satellites like Starlink; space stations such as the ISS; scientific satellites like the Hubble; Earth observation satellites from companies like Planet Labs, Umbra, and HawkEye 360; GPS; miniature CubeSats for education and research; and military/defense satellites.

Loading next visibility...
Identifier
60336, 2024-136H
Orbit
LEO
Country
Flag of USUS
Related business
Manufacturer
SpaceX/Seattle
Mission
Operational Commercial Communications
Bus & Motor
STARLINK V2M, Unknown motor
Mass
730 kg wet, ~700 kg dry
Launch date (UTC)
2024-08-02 (2 years ago)
Launch vehicle
FALCON 9
Launch site
Air Force Eastern Test Range (AFETR)
Object type
Payload
Rocket body
Debris
Shape & HBR
Box + 2 Pan, 17.7 m
Radar Cross Section
33.884 m², Large (>1 m²)

Expand to show TLE details & history
Last TLE update: 1 day ago

TLE from 1 day ago
0 STARLINK-32079
1 60336U 24136H   26033.94538297 -.00000309  00000-0  17013-5 0  9995
2 60336  53.1585 237.1492 0001308  96.0822 264.0327 15.30192405 84347
Epoch: 2026-02-02T22:41Z
TLE epoch observation values (Epoch: 2026-02-02T22:41:21.088Z)
Latitude
-0.00009°
Longitude
123.67788°
Altitude
476.231 km
Speed
7.629 km/s
True Right ascension
15h 48m 35s
True Declination
0° 00' 00"
Sunlit
Object was in daylight at epoch
Visualization orbit readout
Latitude
Unknown
Longitude
Unknown
Altitude
Unknown
Speed
Unknown
Apparent Right ascension
Unknown
Apparent Declination
Unknown
Sunlit
N/A
Visualization observer readout
Local Sidereal Time
08:26:04
Azimuth
Unknown
Elevation
Unknown
Doppler factor
Unknown
Orbital elements
Apogee altitude
476.391 km
Perigee altitude
474.598 km
Semi-major axis
6,853.631 km
Eccentricity
0.00013
Inclination
53.1585°
RAAN
237.1492°
Arg. of periapsis
96.0822°
True anomaly
264.01779°
Mean anomaly
264.0327°
Eccentric anomaly
264.02525°
Mean motion
3.82527 °/min
Orbital period
94.11 mins
BSTAR
0.0000017013
Loading maneuver chart data...
Computing Atmospheric mass density...
Loading historical data...
Loading historical data...
Loading historical data...
Loading historical data...
Loading historical data...
Loading historical data...
Loading historical data...

Documentation

Showing up to 5 results
|